Regional Weather Roundup
Issued by NWS Charleston, SC

Current Version | Previous Version | Graphics & Text | Print | Product List | Glossary On
Versions: 1 2 3 4 5 6 7 8 9 10 11 12 13 14 15 16 17 18 19 20 21 22 23 24 25 26 27 28 29 30 31 32 33 34 35 36 37 38 39 40 41 42 43 44 45 46 47 48 49 50
000 ASUS42 KCHS 012012 RWRCHS REGIONAL WEATHER ROUNDUP NATIONAL WEATHER SERVICE CHARLESTON SC 400 PM EDT MON JUN 01 2015 NOTE: "FAIR" INDICATES FEW OR NO CLOUDS BELOW 12,000 FEET WITH NO SIGNIFICANT WEATHER AND/OR OBSTRUCTIONS TO VISIBILITY. NOT ALL STATIONS ARE QUALITY CONTROLLED BY THE NATIONAL WEATHER SERVICE. USE DATA WITH CAUTION...ESPECIALLY DEWPOINT OBSERVATIONS. SCZ027-030-031-034>040-042>050-012100- ...SOUTHEAST SOUTH CAROLINA... CITY SKY/WX TMP DP RH WIND PRES REMARKS N CHARLESTON MOSUNNY 86 68 54 S13 30.02F WATERFRONT PAR N/A 81 72 74 SE8 30.02F MOUNT PLEASANT LGT RAIN 84 70 61 SE10 30.03F JOHNS ISLAND CLEAR 82 72 69 S9 30.04F PINOPOLIS N/A 90 70 51 S6 29.95F HX 95 MONCKS CORNER FAIR 88 68 51 S10 30.01F HX 91 SUMMERVILLE FAIR 88 68 51 S8 30.02F HX 91 BEAUFORT MCAS PTSUNNY 88 67 49 VRB6 30.02F HX 91 BEAUFORT ARPT FAIR 82 70 65 S6 30.02F HILTON HEAD IS MOSUNNY 84 72 65 S7 30.04F WALTERBORO PTCLDY 86 68 54 S12 30.01F ALLENDALE FAIR 88 64 45 S9 29.99F ...SOUTHERN MIDLANDS AND PEE DEE... CITY SKY/WX TMP DP RH WIND PRES REMARKS GEORGETOWN NOT AVBL KINGSTREE NOT AVBL ORANGEBURG PTSUNNY 88 61 40 S7 30.01F BARNWELL FAIR 88 66 48 SE10 30.00F HX 90 AIKEN MOCLDY 88 55 33 SW9 30.03F MANNING FAIR 88 54 31 S6 30.00F COLUMBIA TSTM 72 67 84 SE5 30.03F SUMTER PTSUNNY 88 62 41 S12 29.99F FLORENCE MOSUNNY 92 64 39 S16G22 29.99F HX 93 MYRTLE BEACH MOSUNNY 84 70 61 S16 30.06F N MYRTLE BEACH SUNNY 82 70 66 S13 30.04F $$ GAZ063-065-086>088-099>101-113>116-118-119-134>141-150-012100- ...SOUTHEAST GEORGIA... CITY SKY/WX TMP DP RH WIND PRES REMARKS SAVANNAH ARPT PTSUNNY 87 63 44 SE9 30.01F HUNTER AAF SUNNY 86 67 53 SE10 29.99F FORT STEWART MOSUNNY 86 68 53 SE10 29.98F STATESBORO MOSUNNY 90 70 51 SE6 29.99F HX 95 SYLVANIA MOCLDY 88 71 56 SE8 30.00F HX 93 CLAXTON FAIR 86 70 58 CALM 29.99F HX 90 ...CSRA...CENTRAL AND FAR SOUTHEAST GEORGIA... CITY SKY/WX TMP DP RH WIND PRES REMARKS THOMSON PTSUNNY 74 73 98 E3 30.06S AUGUSTA-BUSH PTSUNNY 86 65 49 NW10 29.98F AUGUSTA-DANIEL PTSUNNY 76 70 82 N6 30.01F SWAINSBORO FAIR 84 70 61 SE8 30.01F VIDALIA CLOUDY 84 70 61 NE7 30.00F EASTMAN CLOUDY 75 65 70 NW12G20 30.04R HAZLEHURST MOCLDY 83 70 64 SE9 29.99S ALMA PTSUNNY 78 69 73 E5 30.01F WAYCROSS PTSUNNY 85 72 65 NE8 29.99S HX 91 JESUP FAIR 90 70 51 SE5 29.99F HX 95 BAXLEY FAIR 82 72 69 S7 30.01S BRUNSWICK SUNNY 86 61 42 E13G18 30.02F SAINT SIMONS NOT AVBL $$ SCZ027-028-034-036>038-045-046-048>050-GAZ119-141-012100- ...LAKE AND SUPPLEMENTAL COASTAL OBSERVATIONS... STATION/POSITION TIME TEMP WIND PRES WAVE SWELL AIR SEA DIR/SP/G HT/PER HT/PER/DIR (UTC) (F) (DEG/KT/KT) (MB) (FT/S) (FT/S/D) UPR LAKE MARION NOT AVBL WINYAH BAY NOT AVBL LAKE MURRAY 1900 79 120/ 8/ 16 1015.9F ACE BASIN NERRS NOT AVBL FORT PULASKI 1900 81 81 120/ 6/ 9 1018.1F SAPELO ISLAND 1900 87 150/ 8 1017.0F $$ ANZ835-935-AMZ111-154-330-350-352-354-370-450-454-472-012100- ...C-MAN AND BUOY OBSERVATIONS... STATION/POSITION TIME TEMP WIND PRES WAVE SWELL AIR SEA DIR/SP/G HT/PER HT/PER/DIR (UTC) (F) (DEG/KT/KT) (MB) (FT/S) (FT/S/D) BUOY 41004 1950 79 82 130/ 6/ 8 1017.4F 3/ 9 3/ 9 BUOY 41008 1950 78 80 150/ 8/ 10 1017.3F 2/ 8 2/ 80/ 8 FOLLY BEACH CMAN 2000 78 160/ 10/ 11 1017.3F CAPERS NEARSHORE 1908 79 170/ 10/ 12 1018.0F FRIPP NEARSHORE 1900 80 180/ 8/ 12 1017.9F STATION/POSITION TIME TEMP WIND PRES WAVE SWELL AIR SEA DIR/SP/G HT/PER HT/PER/DIR (UTC) (F) (DEG/KT/KT) (MB) (FT/S) (FT/S/D) 5E ST. MARYS GA 1921 82 N/A 3/ 8 FRYING PAN BUOY 1950 79 79 140/ 6/ 10 1018.5F 3/ 9 3/110/ 9 BUOY 41025 1950 78 81 160/ 2/ 4 1018.5F 4/ 9 3/100/ 9 CAPE LOOKOUT NC 2000 77 160/ 11/ 11 1017.5F BUOY 41002 1950 78 82 20/ 2/ 4 1018.7F 4/ 9 5/ 80/ 9 BUOY 41010 1920 78 82 90/ 4/ 4 1018.6F ST AUGUSTINE FL 2000 78 80 130/ 13/ 14 1017.2F $$

USA.gov is the U.S. government's official web portal to all federal, state and local government web resources and services.